Regional Weather Roundup
Issued by NWS Charleston, WV

Home | Current Version | Previous Version | Graphics & Text | Print | Product List | Glossary On
Versions: 1 2 3 4 5 6 7 8 9 10 11 12 13 14 15 16 17 18 19 20 21 22 23 24 25 26 27 28 29 30 31 32 33 34 35 36 37 38 39 40 41 42 43 44 45 46 47 48 49 50
000
ASUS41 KRLX 301010
RWRRLX
West Virginia Regional Weather Roundup
National Weather Service Charleston WV
600 AM EDT TUE JUN 30 2015

Note: "fair" indicates few or no clouds below 12,000 feet with no
significant weather and/or obstructions to visibility.

WVZ003-301100-
Northern Panhandle of West Virginia

CITY           SKY/WX    TMP DP  RH WIND       PRES   REMARKS
WHEELING       CLOUDY    64  62  93 SW6       29.85R FOG
$$

WVZ009-301100-
Northwest West Virginia

CITY           SKY/WX    TMP DP  RH WIND       PRES   REMARKS
PARKERSBURG    NOT AVBL
$$

WVZ006-301100-
Western West Virginia

CITY           SKY/WX    TMP DP  RH WIND       PRES   REMARKS
HUNTINGTON     CLOUDY    66  65  96 SW6       29.87F
$$

WVZ015-301100-
West Central West Virginia

CITY           SKY/WX    TMP DP  RH WIND       PRES   REMARKS
CHARLESTON     MOCLDY    69  65  86 SW6       29.89S
$$

WVZ022-031-301100-
North Central West Virginia

CITY           SKY/WX    TMP DP  RH WIND       PRES   REMARKS
CLARKSBURG     MOCLDY    65  63  93 CALM      29.88R
MORGANTOWN     CLOUDY    66  61  84 S5        29.89R
$$

WVZ025-035-042-045-301100-
Southern West Virginia

CITY           SKY/WX    TMP DP  RH WIND       PRES   REMARKS
BECKLEY        CLOUDY    66  60  81 SW7       29.96F
LOGAN          CLOUDY    70  64  83 CALM      29.89S
BLUEFIELD      MOCLDY    66  60  81 W10       30.00S
LEWISBURG      CLOUDY    63  60  92 CALM      29.96S
$$

WVZ047-301100-
Northern Mountains of West Virginia

CITY           SKY/WX    TMP DP  RH WIND       PRES   REMARKS
ELKINS         MOCLDY    60  58  92 CALM      29.93R
$$

WVZ052-301100-
Eastern Panhandle of West Virginia

CITY           SKY/WX    TMP DP  RH WIND       PRES   REMARKS
MARTINSBURG    CLOUDY    66  61  84 CALM      29.88S
PETERSBURG     PTCLDY    61  58  89 CALM      29.89R
$$


USA.gov is the U.S. government's official web portal to all federal, state and local government web resources and services.